Regional Weather Roundup
Issued by NWS

Home | Current Version | Previous Version | Text Only | Print | Product List | Glossary On
Versions: 1 2 3 4 5 6 7 8 9 10 11 12 13 14 15 16 17 18 19 20 21 22 23 24 25 26 27 28 29 30 31 32 33 34 35 36 37 38 39 40 41 42 43 44 45 46 47 48 49 50
000
ASUS43 KDMX 301407
RWRIA

WEATHER ROUNDUP FOR IOWA
NATIONAL WEATHER SERVICE DES MOINES IA
900 AM CDT THU JUL 30 2015

NOTE: "FAIR" INDICATES FEW OR NO CLOUDS BELOW 12,000 FEET WITH NO
SIGNIFICANT WEATHER AND/OR OBSTRUCTIONS TO VISIBILITY.

* - THESE STATIONS ARE NOT NWS STATIONS...THUS NOT UNDER NWS
QUALITY CONTROL.  THEY ALSO DO NOT REPORT WEATHER SUCH
AS PRECIPITATION OR FOG.

IAZ001>003-012>014-020>022-031>034-043>046-301500-
   NORTHWEST IOWA

CITY           SKY/WX    TMP DP  RH WIND       PRES   REMARKS
CARROLL *      SUNNY     72  61  68 W10G17    30.16R
CHEROKEE *     SUNNY     68  64  88 SW6       30.17R
DENISON *      SUNNY     68  63  83 W7        30.17R
LE MARS *      SUNNY     70  63  78 CALM      30.17R
ORANGE CITY *  SUNNY     66  61  82 W8        30.16S
SHELDON *      SUNNY     66  61  82 SW5       30.14S
SIOUX CITY     SUNNY     72  58  61 W8        30.17R
SPENCER          N/A     70  61  73 SW5       30.14S
STORM LAKE *   SUNNY     68  61  77 W10       30.17R
$$

IAZ055>058-069>071-079>083-090>094-301500-
   SOUTHWEST IOWA

CITY           SKY/WX    TMP DP  RH WIND       PRES   REMARKS
ATLANTIC *     SUNNY     72  64  78 SW6       30.20R
AUDUBON *      SUNNY     73  63  68 W3        30.20R
CLARINDA *     SUNNY     72  66  83 CALM      30.23R
COUNCIL BLFS * SUNNY     73  63  68 SW8       30.21R
CRESTON *      SUNNY     72  64  78 W7        30.21R
HARLAN  *      SUNNY     72  64  78 W9        30.23R
LAMONI         SUNNY     74  64  71 W8        30.20R
RED OAK *      SUNNY     72  66  83 CALM      30.22R
SHENANDOAH *   SUNNY     72  64  78 VRB3      30.22R
$$

IAZ047>049-059>061-072>074-084-301500-
   CENTRAL IOWA

CITY           SKY/WX    TMP DP  RH WIND       PRES   REMARKS
AMES           SUNNY     71  62  73 W10       30.14R
ANKENY *       SUNNY     73  61  64 W10       30.15R
CHARITON *     SUNNY     73  61  64 W9        30.18R
DES MOINES     SUNNY     75  59  57 W8        30.15R
GRINNELL*      SUNNY     72  61  68 W8        30.16R
KNOXVILLE *    SUNNY     72  61  68 W7        30.15R
MARSHALLTOWN   SUNNY     70  62  76 W12       30.13R
PELLA *        SUNNY     73  64  73 W9        30.16R
PERRY *          N/A     73  63  68 W9        30.16S
$$

IAZ004>006-015-016-023>025-035-036-301500-
   NORTH CENTRAL IOWA

CITY           SKY/WX    TMP DP  RH WIND       PRES   REMARKS
ALGONA *       SUNNY     70  61  73 W8        30.13S
CLARION *      SUNNY     68  64  88 W6        30.14R
ESTHERVILLE    SUNNY     68  61  78 SW8       30.12R
FORT DODGE *   SUNNY     70  63  78 SW7       30.16R
MASON CITY     SUNNY     72  60  66 W7        30.12S
FOREST CITY *  SUNNY     70  61  73 CALM      30.11S
IOWA FALLS *     N/A     68  63  83 W7        30.15R
$$

IAZ007>011-017>019-026>030-037>042-050>054-066-301500-
   NORTHEAST IOWA

CITY           SKY/WX    TMP DP  RH WIND       PRES   REMARKS
CEDAR RAPIDS   SUNNY     70  63  78 W12       30.12R
CHARLES CITY *   N/A    N/A N/A N/A W7        30.12R
CLINTON *      SUNNY     70  63  78 W6        30.13S
DECORAH *      SUNNY     70  61  73 VRB5      30.09R
DUBUQUE        SUNNY     72  60  66 W8        30.10S
MONTICELLO *   SUNNY     72  63  73 W5        30.11S
OELWEIN *      SUNNY     70  63  78 W6        30.12R
WATERLOO       SUNNY     72  61  68 W6        30.10S
$$

IAZ064-065-067-068-078-301500-
   EAST CENTRAL IOWA

CITY           SKY/WX    TMP DP  RH WIND       PRES   REMARKS
DAVENPORT      SUNNY     72  63  73 W7        30.12R
IOWA CITY      SUNNY     73  61  65 W9        30.13R
MT. PLEASANT * SUNNY     75  55  50 W7        30.15R
MUSCATINE *    SUNNY     73  63  68 NW7       30.12S
QUAD CITIES    SUNNY     75  60  59 W10       30.11R
$$

IAZ062-063-075>077-085>089-095>099-301500-
   SOUTHEAST IOWA

CITY           SKY/WX    TMP DP  RH WIND       PRES   REMARKS
BURLINGTON     SUNNY     75  63  66 NW6       30.14R
FAIRFIELD *    SUNNY     72  61  68 W8        30.16R
FORT MADISON * SUNNY     73  61  64 W7        30.16R
KEOKUK *       SUNNY     75  61  60 NW7       30.15R
OSKALOOSA *      N/A     70  63  78 W5        30.16R
CENTERVILLE *  SUNNY     73  63  68 W7        30.20R
OTTUMWA        SUNNY     71  62  73 W9        30.14R
WASHINGTON *   SUNNY     72  63  73 W8        30.15S
$$

ABBREVIATIONS USED IN REMARKS
   TC - TEMPERATURES IN CELSIUS
  WCI - WIND CHILL INDEX
   HX - HEAT INDEX
  VSB - VISIBILITY
$$




USA.gov is the U.S. government's official web portal to all federal, state and local government web resources and services.